MONITOR-2 (RS39S)

Last updated on Wed Oct 22 2025 00:03:09 GMT+0000 (Coordinated Universal Time)

1 57184U 23091U 25294.62036961 .00008393 00000+0 44131-3 0 9993 2 57184 97.5451 349.4255 0011050 215.1852 144.8652 15.15868857127779
UTC large
Height (km)
Speed (km/s)
/
Latitude / Longitude
Inclination (degrees)
Orbital Period (minutes)
Azimuth
Elevation
Range (km)
Doppler Factor

Next 0 passes for location: London (51.5072 / 0.1276)

Sorry there are no passes over London.